GFSMW_500_temp_141.txt.gz
Temp
-14 -13 -13 -13 -13 -13 -13 -13 -12 -12 -12 -13 -13 -12 -12 -13 -13 -13 -13 -13 -12 -14 -13 -13 -13 -13 -12 -12 -13 -13 -12 -12 -12 -12 -12 -13 -12 -12 -13 -13 -12 -12 -12
-14 -14 -13 -13 -13 -13 -12 -12 -12 -12 -12 -12 -13 -13 -12 -12 -13 -13 -13 -13 -13 -13 -14 -12 -13 -13 -13 -13 -13 -13 -13 -13 -12 -12 -12 -12 -12 -13 -13 -13 -13 -13 -13
-14 -14 -14 -14 -14 -14 -13 -13 -13 -12 -13 -13 -13 -13 -13 -12 -12 -13 -13 -13 -13 -13 -13 -13 -12 -13 -13 -13 -13 -13 -13 -13 -13 -12 -12 -13 -13 -13 -13 -13 -13 -13 -13
-16 -16 -15 -16 -16 -16 -16 -16 -16 -16 -15 -15 -15 -15 -14 -13 -12 -13 -13 -13 -13 -12 -11 -13 -13 -13 -13 -13 -13 -13 -13 -13 -13 -13 -13 -13 -13 -13 -13 -13 -13 -13 -13
-18 -19 -18 -18 -17 -18 -17 -17 -17 -17 -16 -17 -16 -16 -16 -16 -14 -12 -13 -12 -13 -13 -13 -12 -13 -13 -13 -13 -13 -13 -13 -13 -13 -13 -13 -13 -13 -13 -13 -13 -13 -13 -13
-19 -18 -18 -17 -18 -18 -17 -17 -17 -16 -16 -16 -16 -16 -16 -16 -16 -13 -13 -13 -13 -13 -13 -12 -12 -12 -13 -13 -13 -13 -13 -13 -14 -13 -14 -14 -13 -13 -13 -13 -12 -12 -12
-19 -19 -19 -18 -18 -18 -17 -17 -16 -16 -16 -16 -16 -16 -16 -16 -17 -16 -14 -14 -13 -13 -12 -11 -13 -13 -13 -14 -14 -13 -13 -14 -14 -13 -14 -14 -13 -14 -13 -13 -12 -12 -13
-19 -19 -19 -18 -18 -17 -17 -17 -16 -16 -15 -15 -16 -18 -17 -17 -17 -17 -16 -15 -14 -14 -12 -12 -12 -14 -13 -14 -14 -14 -14 -14 -14 -13 -13 -13 -13 -14 -13 -13 -13 -12 -13
-19 -19 -19 -18 -17 -16 -16 -15 -15 -16 -15 -15 -17 -18 -18 -19 -20 -19 -17 -16 -14 -15 -12 -13 -12 -14 -14 -14 -14 -14 -14 -14 -14 -14 -14 -14 -13 -14 -13 -13 -13 -12 -12
-20 -19 -19 -19 -18 -17 -16 -16 -16 -15 -16 -16 -18 -19 -19 -20 -21 -20 -17 -17 -14 -15 -13 -10 -12 -13 -15 -14 -14 -15 -15 -14 -14 -14 -14 -14 -14 -14 -13 -13 -13 -13 -12
-19 -19 -19 -19 -18 -17 -17 -17 -16 -16 -16 -18 -18 -19 -20 -20 -20 -20 -17 -17 -16 -15 -13 -12 -10 -12 -14 -14 -14 -15 -15 -14 -14 -14 -13 -14 -14 -14 -14 -13 -13 -13 -13
-20 -19 -19 -19 -18 -18 -18 -17 -17 -17 -18 -18 -19 -20 -20 -20 -20 -19 -17 -17 -16 -16 -15 -14 -11 -12 -14 -12 -14 -14 -13 -14 -13 -14 -14 -14 -14 -14 -14 -13 -13 -13 -13
-20 -20 -19 -19 -19 -19 -19 -18 -18 -18 -18 -19 -19 -19 -20 -20 -20 -18 -18 -17 -16 -15 -14 -13 -12 -13 -12 -14 -14 -14 -14 -13 -13 -13 -14 -14 -14 -14 -14 -13 -13 -13 -13
-21 -21 -20 -20 -19 -19 -20 -19 -19 -19 -19 -19 -18 -19 -19 -19 -19 -19 -17 -17 -15 -16 -15 -14 -13 -11 -13 -14 -14 -14 -14 -14 -14 -14 -14 -14 -15 -14 -13 -14 -13 -13 -13
-21 -21 -21 -21 -21 -20 -20 -20 -19 -19 -19 -19 -18 -18 -18 -17 -17 -17 -17 -16 -15 -15 -15 -15 -16 -11 -13 -13 -13 -13 -15 -14 -14 -14 -14 -15 -15 -14 -14 -13 -13 -13 -13
-21 -21 -21 -21 -21 -21 -21 -20 -20 -19 -19 -18 -18 -18 -18 -18 -17 -17 -17 -16 -15 -15 -16 -16 -13 -14 -11 -13 -13 -13 -14 -15 -14 -15 -16 -15 -14 -14 -14 -14 -13 -13 -13
-22 -21 -22 -21 -21 -21 -21 -21 -21 -20 -20 -19 -18 -18 -17 -17 -17 -18 -17 -15 -17 -16 -15 -15 -14 -13 -13 -13 -13 -13 -13 -15 -16 -16 -15 -15 -14 -14 -14 -14 -13 -13 -13
-22 -22 -22 -22 -21 -21 -21 -21 -21 -21 -21 -21 -20 -19 -18 -17 -17 -17 -17 -16 -17 -17 -16 -15 -15 -14 -14 -14 -14 -15 -16 -16 -16 -16 -15 -15 -15 -14 -14 -14 -14 -13 -13
-22 -22 -22 -21 -21 -21 -21 -21 -21 -21 -21 -21 -21 -21 -19 -18 -17 -17 -16 -17 -16 -16 -16 -16 -16 -16 -15 -15 -15 -15 -15 -16 -16 -15 -15 -15 -15 -15 -15 -14 -14 -14 -14
-23 -23 -22 -22 -21 -21 -21 -21 -21 -21 -21 -21 -20 -20 -20 -21 -20 -18 -17 -17 -17 -17 -17 -17 -17 -16 -16 -16 -16 -16 -16 -16 -16 -16 -15 -16 -16 -15 -15 -15 -15 -14 -14
-24 -24 -24 -23 -23 -22 -21 -21 -21 -21 -21 -21 -21 -21 -20 -19 -20 -20 -20 -19 -19 -18 -18 -19 -18 -17 -17 -17 -17 -16 -16 -16 -17 -17 -17 -16 -16 -15 -15 -15 -15 -15 -15
-25 -25 -24 -24 -24 -23 -23 -22 -21 -21 -21 -21 -20 -20 -20 -20 -21 -20 -20 -20 -20 -20 -21 -21 -21 -20 -20 -20 -19 -20 -19 -19 -19 -18 -17 -17 -16 -16 -16 -16 -15 -15 -15
-25 -25 -25 -25 -24 -24 -24 -23 -23 -22 -21 -21 -21 -20 -20 -20 -20 -20 -20 -20 -21 -21 -21 -21 -21 -20 -20 -20 -20 -20 -20 -20 -19 -19 -18 -17 -17 -17 -16 -16 -16 -15 -15
-26 -26 -26 -26 -25 -25 -24 -24 -23 -23 -23 -22 -21 -21 -21 -20 -20 -20 -20 -20 -20 -20 -20 -20 -20 -20 -20 -20 -20 -20 -20 -19 -18 -18 -18 -17 -17 -17 -17 -16 -16 -16 -16
-26 -26 -26 -26 -26 -25 -25 -24 -24 -23 -23 -23 -23 -22 -22 -22 -21 -21 -21 -20 -20 -20 -20 -20 -20 -19 -19 -19 -19 -19 -19 -19 -18 -18 -18 -18 -17 -17 -17 -17 -17 -17 -16
-27 -27 -26 -26 -26 -26 -25 -25 -24 -24 -23 -23 -23 -23 -23 -23 -22 -22 -22 -22 -21 -21 -21 -20 -20 -20 -19 -19 -19 -19 -19 -18 -18 -18 -18 -18 -18 -18 -18 -17 -17 -16 -16

GFSMW_500_temp_147.txt.gz
Temp
-13 -13 -13 -13 -13 -13 -13 -13 -13 -13 -13 -13 -13 -13 -13 -13 -13 -13 -13 -13 -12 -13 -13 -13 -13 -13 -13 -12 -12 -13 -14 -14 -13 -12 -12 -13 -13 -13 -13 -13 -13 -12 -12
-13 -13 -13 -13 -13 -13 -13 -13 -13 -13 -13 -13 -13 -13 -13 -12 -13 -14 -13 -13 -13 -13 -13 -13 -13 -13 -12 -12 -12 -13 -13 -14 -13 -12 -13 -13 -13 -13 -13 -13 -13 -13 -12
-14 -14 -13 -13 -13 -14 -14 -14 -14 -14 -14 -13 -13 -13 -13 -12 -12 -12 -13 -13 -13 -13 -13 -13 -13 -13 -12 -12 -11 -12 -13 -13 -14 -13 -13 -13 -12 -13 -13 -14 -14 -13 -13
-14 -14 -14 -14 -15 -15 -15 -15 -14 -14 -13 -14 -14 -14 -14 -15 -15 -14 -14 -15 -14 -13 -13 -13 -13 -13 -13 -13 -12 -12 -12 -13 -13 -13 -13 -13 -13 -13 -14 -13 -13 -14 -13
-15 -15 -15 -15 -15 -15 -15 -15 -16 -17 -16 -16 -16 -16 -16 -16 -16 -16 -17 -17 -16 -14 -13 -13 -13 -13 -13 -13 -12 -12 -12 -13 -14 -13 -13 -14 -13 -13 -14 -14 -13 -13 -13
-15 -15 -15 -15 -16 -16 -16 -17 -18 -18 -18 -17 -17 -16 -16 -16 -16 -16 -16 -17 -17 -16 -14 -14 -13 -13 -13 -13 -13 -13 -13 -13 -14 -14 -14 -14 -14 -14 -14 -14 -14 -14 -13
-16 -16 -16 -16 -17 -17 -18 -19 -19 -19 -18 -18 -17 -16 -16 -16 -15 -16 -16 -16 -16 -17 -16 -15 -14 -13 -13 -13 -14 -14 -13 -12 -13 -13 -14 -15 -14 -14 -14 -14 -13 -13 -13
-17 -17 -17 -17 -19 -19 -19 -19 -19 -19 -18 -18 -18 -17 -17 -16 -16 -15 -16 -16 -16 -16 -16 -16 -16 -15 -14 -13 -13 -14 -14 -13 -13 -13 -13 -14 -15 -15 -14 -14 -14 -14 -13
-18 -18 -18 -19 -20 -20 -20 -19 -19 -19 -19 -18 -18 -18 -17 -16 -16 -16 -16 -16 -16 -16 -16 -16 -16 -16 -15 -14 -13 -14 -13 -13 -12 -13 -13 -14 -15 -15 -15 -14 -14 -14 -13
-18 -18 -19 -20 -21 -21 -21 -20 -20 -19 -19 -18 -18 -18 -17 -16 -16 -16 -16 -16 -16 -16 -16 -16 -16 -15 -15 -15 -14 -14 -14 -13 -13 -13 -13 -13 -14 -15 -15 -14 -14 -14 -13
-19 -20 -21 -21 -21 -21 -21 -21 -20 -19 -19 -19 -19 -18 -17 -17 -17 -17 -17 -16 -16 -16 -17 -18 -17 -17 -16 -15 -15 -14 -14 -14 -13 -13 -13 -12 -14 -15 -15 -14 -14 -14 -13
-20 -21 -22 -22 -22 -21 -21 -21 -21 -20 -20 -20 -20 -19 -18 -17 -16 -17 -17 -17 -18 -18 -18 -20 -19 -18 -17 -17 -16 -16 -15 -15 -14 -13 -14 -13 -13 -14 -14 -14 -14 -14 -13
-22 -22 -22 -22 -22 -22 -21 -21 -21 -21 -21 -20 -21 -21 -20 -19 -17 -18 -17 -18 -18 -19 -19 -20 -19 -18 -18 -17 -17 -16 -16 -15 -14 -14 -14 -13 -13 -14 -14 -14 -14 -13 -14
-22 -22 -22 -22 -22 -22 -22 -22 -22 -22 -21 -21 -21 -21 -21 -20 -20 -19 -19 -18 -19 -19 -19 -18 -19 -19 -19 -19 -18 -17 -16 -16 -14 -14 -14 -14 -13 -13 -14 -14 -14 -14 -14
-22 -22 -22 -23 -22 -22 -22 -22 -22 -22 -22 -21 -21 -21 -21 -21 -20 -21 -19 -19 -19 -19 -19 -19 -19 -19 -19 -19 -18 -17 -16 -16 -15 -14 -14 -14 -14 -13 -14 -14 -14 -14 -14
-22 -22 -23 -23 -23 -23 -22 -22 -22 -22 -22 -22 -21 -21 -21 -21 -21 -21 -21 -20 -20 -19 -18 -18 -18 -19 -18 -19 -19 -17 -16 -16 -15 -14 -13 -13 -13 -13 -13 -14 -14 -14 -15
-22 -22 -23 -23 -23 -23 -23 -23 -23 -22 -22 -22 -21 -21 -21 -21 -21 -21 -22 -21 -21 -20 -19 -20 -18 -19 -18 -18 -18 -18 -17 -17 -16 -14 -14 -14 -15 -14 -14 -14 -14 -14 -14
-22 -23 -23 -23 -23 -23 -23 -23 -23 -23 -23 -22 -21 -21 -21 -21 -21 -21 -21 -22 -22 -21 -20 -19 -19 -19 -18 -17 -18 -17 -17 -16 -15 -14 -15 -13 -13 -14 -14 -13 -14 -14 -14
-23 -23 -23 -23 -23 -24 -24 -24 -24 -24 -23 -23 -22 -22 -21 -21 -21 -21 -21 -22 -22 -22 -22 -21 -19 -19 -18 -17 -17 -18 -17 -16 -14 -14 -15 -15 -15 -14 -14 -13 -14 -14 -14
-23 -23 -24 -24 -24 -25 -25 -25 -24 -24 -24 -24 -23 -23 -23 -22 -21 -21 -21 -21 -21 -22 -23 -22 -22 -23 -21 -20 -17 -17 -17 -16 -15 -15 -14 -13 -15 -13 -15 -14 -14 -14 -14
-24 -24 -25 -25 -26 -26 -26 -26 -25 -25 -25 -24 -24 -24 -23 -23 -22 -21 -21 -21 -21 -21 -21 -21 -22 -22 -22 -23 -21 -18 -17 -16 -15 -15 -14 -14 -15 -15 -15 -14 -14 -15 -15
-25 -25 -25 -26 -26 -26 -26 -26 -26 -26 -25 -25 -24 -24 -24 -23 -23 -22 -22 -21 -21 -20 -20 -20 -20 -21 -21 -22 -22 -21 -18 -16 -16 -16 -16 -16 -16 -16 -16 -16 -16 -15 -16
-25 -26 -26 -26 -27 -27 -27 -27 -27 -27 -26 -26 -25 -25 -24 -24 -23 -23 -22 -22 -22 -21 -20 -20 -20 -20 -20 -20 -21 -20 -20 -18 -17 -16 -17 -17 -17 -16 -16 -16 -15 -15 -16
-26 -26 -26 -27 -27 -27 -27 -27 -27 -27 -26 -26 -26 -26 -25 -25 -24 -24 -23 -23 -22 -22 -22 -22 -21 -21 -20 -20 -20 -20 -20 -20 -20 -20 -19 -19 -18 -18 -17 -17 -17 -17 -16
-26 -27 -27 -27 -27 -27 -27 -27 -27 -27 -27 -27 -27 -26 -26 -26 -26 -26 -25 -25 -24 -23 -23 -22 -22 -22 -21 -21 -20 -20 -19 -20 -20 -20 -20 -20 -20 -19 -19 -20 -20 -19 -19
-26 -27 -27 -27 -27 -27 -27 -27 -27 -27 -27 -27 -27 -27 -27 -26 -26 -26 -26 -26 -25 -25 -25 -24 -23 -23 -22 -21 -21 -21 -20 -19 -19 -19 -19 -19 -20 -20 -19 -19 -19 -19 -19

GFSMW_500_temp_153.txt.gz
Temp
-13 -13 -13 -13 -13 -13 -13 -13 -13 -13 -13 -13 -13 -13 -13 -13 -13 -13 -13 -13 -13 -13 -13 -12 -12 -12 -12 -13 -13 -13 -13 -12 -13 -13 -13 -13 -14 -13 -13 -13 -12 -12 -12
-13 -13 -13 -13 -13 -13 -13 -13 -13 -13 -13 -13 -13 -13 -13 -13 -13 -13 -13 -13 -13 -13 -13 -13 -13 -13 -13 -13 -13 -13 -13 -13 -12 -13 -13 -11 -13 -13 -13 -13 -12 -12 -12
-14 -14 -13 -13 -13 -13 -13 -13 -13 -13 -13 -13 -13 -13 -13 -13 -13 -13 -13 -13 -13 -13 -13 -13 -13 -13 -13 -13 -13 -13 -13 -13 -13 -14 -13 -12 -11 -13 -13 -14 -13 -13 -13
-14 -14 -14 -14 -14 -14 -14 -13 -13 -13 -14 -14 -14 -14 -14 -14 -13 -13 -13 -13 -13 -13 -13 -13 -13 -13 -13 -13 -13 -13 -13 -13 -13 -13 -14 -13 -13 -13 -13 -14 -13 -13 -13
-15 -15 -15 -15 -15 -15 -14 -14 -14 -15 -15 -15 -14 -14 -14 -14 -14 -14 -14 -14 -14 -14 -14 -14 -14 -14 -13 -13 -13 -14 -15 -14 -14 -14 -14 -12 -12 -14 -12 -13 -14 -14 -14
-15 -16 -16 -15 -15 -15 -15 -15 -16 -16 -15 -15 -15 -14 -15 -15 -15 -15 -15 -16 -16 -16 -16 -16 -17 -16 -16 -16 -16 -16 -15 -16 -15 -14 -14 -14 -14 -13 -12 -12 -12 -14 -14
-16 -16 -16 -16 -16 -16 -16 -16 -16 -16 -16 -16 -16 -16 -16 -16 -16 -17 -18 -18 -18 -18 -18 -17 -16 -16 -16 -16 -15 -15 -15 -15 -16 -17 -15 -14 -14 -13 -13 -13 -13 -13 -15
-16 -16 -16 -16 -17 -17 -17 -17 -17 -17 -17 -17 -17 -17 -18 -19 -19 -19 -19 -19 -18 -18 -18 -16 -17 -16 -16 -16 -15 -15 -16 -16 -16 -17 -17 -15 -14 -14 -13 -13 -14 -14 -14
-16 -16 -17 -17 -17 -17 -18 -18 -18 -18 -18 -18 -19 -20 -20 -20 -20 -20 -20 -19 -19 -19 -18 -17 -17 -16 -16 -16 -16 -16 -16 -16 -16 -17 -18 -17 -16 -14 -14 -13 -14 -13 -13
-17 -17 -17 -18 -18 -18 -18 -18 -18 -19 -20 -21 -21 -21 -21 -21 -21 -20 -20 -20 -19 -19 -18 -18 -17 -16 -16 -16 -16 -16 -16 -17 -17 -17 -18 -18 -16 -15 -14 -14 -14 -15 -15
-18 -18 -18 -18 -18 -18 -18 -19 -19 -20 -21 -21 -22 -22 -22 -22 -21 -21 -21 -21 -20 -19 -19 -17 -17 -17 -17 -17 -17 -17 -17 -17 -17 -17 -18 -18 -17 -15 -15 -15 -14 -14 -14
-19 -19 -19 -19 -19 -19 -19 -20 -21 -21 -21 -21 -21 -21 -22 -22 -22 -21 -21 -21 -21 -20 -20 -18 -17 -17 -17 -17 -17 -18 -17 -17 -17 -17 -18 -18 -18 -17 -16 -15 -15 -14 -14
-20 -19 -19 -19 -20 -20 -20 -21 -21 -21 -21 -21 -21 -21 -22 -22 -22 -21 -21 -21 -21 -21 -20 -20 -19 -18 -18 -18 -17 -17 -18 -17 -18 -18 -18 -18 -18 -18 -16 -16 -15 -14 -14
-20 -20 -20 -20 -20 -21 -21 -21 -21 -22 -22 -22 -22 -22 -22 -22 -22 -22 -21 -21 -21 -21 -21 -21 -21 -18 -18 -18 -18 -18 -18 -18 -19 -18 -18 -18 -18 -17 -17 -16 -15 -15 -15
-20 -20 -21 -21 -21 -21 -21 -22 -22 -22 -22 -22 -22 -22 -22 -22 -22 -22 -22 -22 -21 -21 -21 -20 -21 -21 -20 -18 -18 -18 -18 -19 -19 -19 -20 -19 -17 -17 -17 -17 -16 -14 -14
-21 -21 -21 -21 -21 -22 -22 -22 -22 -22 -22 -22 -22 -23 -23 -22 -22 -22 -22 -22 -22 -21 -21 -21 -21 -21 -22 -21 -19 -18 -19 -19 -20 -20 -20 -20 -19 -18 -17 -17 -17 -15 -15
-21 -21 -22 -22 -22 -22 -22 -23 -23 -23 -23 -23 -24 -24 -25 -24 -24 -24 -23 -23 -22 -22 -21 -21 -21 -21 -21 -22 -22 -20 -20 -20 -20 -20 -20 -20 -20 -19 -18 -18 -17 -17 -16
-22 -22 -22 -22 -23 -23 -23 -24 -24 -24 -25 -25 -26 -26 -25 -25 -25 -25 -24 -23 -23 -22 -21 -21 -21 -21 -20 -21 -21 -22 -21 -20 -20 -20 -20 -20 -20 -20 -19 -19 -18 -17 -17
-22 -22 -23 -23 -23 -23 -24 -25 -25 -25 -26 -26 -26 -26 -26 -26 -25 -25 -24 -24 -24 -23 -23 -22 -21 -21 -21 -21 -21 -21 -22 -21 -20 -20 -20 -20 -20 -20 -18 -18 -18 -17 -17
-23 -23 -23 -23 -24 -25 -25 -25 -26 -26 -26 -26 -26 -26 -26 -26 -26 -25 -25 -24 -24 -24 -24 -23 -23 -22 -22 -22 -21 -22 -21 -21 -22 -21 -21 -21 -20 -20 -19 -19 -18 -17 -17
-23 -23 -24 -24 -25 -25 -26 -26 -26 -26 -26 -27 -27 -27 -27 -27 -27 -27 -26 -25 -24 -24 -24 -24 -23 -23 -23 -23 -22 -22 -22 -22 -21 -21 -21 -21 -21 -20 -19 -19 -18 -17 -17
-23 -24 -25 -25 -26 -26 -26 -26 -26 -26 -26 -27 -27 -27 -27 -27 -27 -27 -27 -26 -26 -25 -24 -24 -24 -23 -23 -23 -23 -23 -23 -23 -23 -22 -21 -21 -21 -20 -20 -19 -19 -17 -17
-25 -25 -26 -26 -26 -26 -26 -26 -26 -26 -26 -27 -27 -27 -27 -27 -27 -27 -27 -27 -27 -26 -26 -26 -25 -25 -24 -23 -23 -23 -23 -23 -23 -23 -22 -23 -22 -21 -21 -21 -20 -18 -18
-26 -26 -26 -26 -26 -26 -26 -26 -26 -26 -26 -26 -26 -26 -26 -27 -27 -27 -27 -27 -27 -27 -27 -26 -26 -26 -26 -25 -25 -25 -24 -23 -23 -22 -22 -22 -22 -23 -23 -22 -21 -20 -19
-25 -26 -26 -26 -26 -26 -26 -26 -26 -26 -26 -26 -26 -26 -26 -26 -26 -26 -26 -26 -26 -26 -26 -26 -26 -26 -26 -25 -25 -25 -25 -25 -24 -24 -23 -23 -22 -22 -22 -22 -22 -23 -21
-26 -26 -26 -26 -26 -26 -26 -26 -26 -26 -26 -26 -26 -26 -26 -26 -26 -26 -25 -25 -25 -25 -25 -25 -25 -25 -25 -25 -25 -25 -24 -24 -24 -24 -24 -24 -24 -24 -23 -22 -21 -21 -21

GFSMW_500_temp_159.txt.gz
Temp
-13 -13 -13 -13 -13 -13 -13 -13 -13 -13 -13 -13 -13 -13 -13 -13 -13 -13 -13 -13 -13 -12 -12 -13 -13 -13 -13 -13 -13 -13 -12 -12 -13 -13 -13 -13 -13 -13 -13 -13 -12 -12 -12
-13 -13 -13 -13 -13 -13 -13 -13 -13 -13 -13 -13 -13 -13 -13 -14 -14 -13 -13 -13 -13 -13 -13 -12 -12 -12 -12 -12 -12 -12 -12 -12 -13 -12 -12 -12 -12 -13 -13 -13 -13 -12 -12
-14 -14 -14 -14 -14 -14 -14 -14 -14 -14 -14 -14 -14 -14 -14 -14 -14 -14 -14 -13 -13 -13 -13 -13 -13 -13 -12 -12 -12 -12 -12 -12 -13 -13 -12 -12 -12 -13 -13 -13 -13 -13 -12
-15 -15 -14 -14 -14 -14 -14 -14 -14 -14 -14 -14 -14 -14 -15 -14 -14 -14 -14 -14 -14 -14 -14 -14 -14 -13 -13 -13 -13 -13 -13 -13 -12 -13 -13 -13 -12 -12 -13 -13 -13 -13 -13
-15 -15 -15 -15 -15 -15 -15 -15 -15 -15 -15 -15 -15 -15 -15 -15 -15 -15 -15 -15 -15 -15 -15 -15 -15 -14 -14 -14 -13 -13 -14 -14 -13 -13 -14 -14 -13 -13 -13 -13 -13 -14 -14
-16 -16 -16 -16 -16 -16 -16 -16 -15 -16 -16 -16 -15 -16 -16 -16 -16 -16 -16 -16 -16 -16 -16 -16 -15 -15 -15 -14 -14 -14 -14 -14 -14 -14 -14 -14 -14 -14 -14 -14 -13 -13 -14
-16 -17 -16 -16 -16 -16 -16 -16 -16 -16 -16 -16 -16 -16 -16 -16 -16 -16 -17 -17 -17 -17 -16 -16 -16 -16 -15 -15 -15 -15 -16 -17 -17 -16 -16 -16 -15 -15 -15 -14 -14 -14 -14
-17 -17 -17 -17 -18 -17 -17 -17 -17 -17 -17 -17 -16 -17 -17 -17 -17 -17 -17 -17 -18 -18 -17 -17 -17 -17 -17 -17 -18 -19 -19 -18 -18 -17 -17 -17 -17 -17 -17 -17 -15 -15 -14
-17 -17 -18 -18 -18 -18 -17 -17 -18 -18 -17 -17 -18 -18 -18 -18 -18 -18 -18 -18 -18 -19 -19 -19 -19 -19 -19 -19 -19 -20 -19 -19 -18 -18 -17 -17 -17 -17 -17 -17 -17 -16 -15
-19 -18 -18 -18 -18 -18 -18 -18 -18 -18 -19 -19 -19 -19 -19 -19 -19 -19 -19 -19 -20 -20 -20 -20 -19 -19 -19 -20 -20 -20 -20 -19 -18 -18 -17 -17 -17 -17 -17 -16 -16 -16 -15
-19 -19 -19 -19 -19 -19 -19 -19 -19 -20 -20 -20 -20 -20 -20 -20 -20 -20 -20 -20 -20 -21 -21 -20 -20 -20 -20 -20 -21 -20 -20 -20 -19 -18 -17 -17 -17 -16 -16 -16 -16 -16 -16
-21 -20 -20 -20 -20 -20 -19 -19 -21 -21 -20 -21 -20 -21 -21 -21 -21 -21 -21 -21 -21 -21 -21 -21 -21 -21 -21 -21 -21 -21 -20 -20 -20 -18 -18 -17 -17 -17 -17 -17 -16 -16 -16
-21 -21 -20 -20 -20 -20 -20 -22 -22 -21 -21 -21 -21 -21 -21 -21 -21 -21 -21 -21 -22 -22 -22 -22 -22 -22 -22 -21 -21 -21 -21 -20 -20 -19 -18 -18 -18 -17 -17 -17 -17 -17 -16
-21 -21 -20 -20 -21 -21 -22 -22 -21 -21 -21 -21 -21 -21 -21 -22 -22 -22 -22 -23 -24 -24 -24 -24 -24 -24 -23 -22 -22 -21 -21 -20 -20 -20 -19 -18 -18 -17 -17 -17 -18 -17 -17
-21 -21 -21 -21 -23 -23 -22 -22 -21 -21 -21 -21 -22 -22 -22 -22 -23 -24 -24 -25 -25 -25 -25 -25 -25 -25 -25 -23 -22 -22 -22 -21 -20 -20 -19 -18 -17 -17 -18 -17 -17 -18 -18
-21 -21 -21 -22 -23 -22 -22 -22 -22 -22 -22 -22 -22 -23 -24 -24 -25 -25 -26 -26 -25 -25 -25 -25 -25 -25 -25 -24 -23 -22 -22 -22 -22 -20 -20 -19 -18 -19 -18 -18 -18 -18 -18
-22 -22 -23 -23 -23 -22 -22 -22 -22 -22 -22 -23 -24 -24 -25 -25 -26 -26 -26 -26 -26 -26 -25 -26 -26 -26 -25 -24 -24 -23 -22 -22 -22 -22 -21 -20 -20 -20 -19 -19 -19 -19 -18
-22 -22 -23 -22 -22 -22 -22 -22 -23 -23 -24 -24 -25 -25 -25 -25 -26 -26 -26 -27 -26 -26 -26 -26 -26 -26 -25 -24 -24 -23 -23 -22 -22 -22 -22 -22 -21 -20 -20 -20 -19 -19 -19
-22 -22 -22 -22 -22 -22 -23 -23 -24 -24 -25 -25 -25 -25 -25 -25 -26 -27 -27 -27 -27 -27 -27 -27 -26 -26 -25 -24 -24 -23 -23 -23 -23 -22 -22 -22 -22 -22 -21 -20 -21 -20 -21
-23 -23 -22 -22 -23 -23 -24 -24 -25 -25 -25 -25 -25 -25 -25 -25 -26 -27 -27 -28 -28 -28 -28 -28 -27 -26 -26 -25 -24 -24 -23 -23 -23 -22 -22 -22 -22 -22 -22 -22 -22 -21 -21
-22 -22 -23 -23 -24 -24 -25 -25 -25 -25 -25 -25 -25 -25 -25 -25 -26 -26 -27 -27 -27 -27 -27 -27 -27 -27 -26 -26 -26 -26 -25 -25 -24 -23 -23 -22 -22 -22 -22 -22 -22 -22 -21
-23 -23 -24 -24 -24 -25 -25 -25 -25 -25 -25 -25 -25 -25 -25 -25 -25 -26 -26 -26 -26 -26 -26 -26 -26 -26 -26 -26 -26 -26 -26 -26 -25 -25 -25 -25 -24 -24 -23 -22 -22 -22 -22
-23 -24 -24 -24 -25 -25 -25 -25 -25 -25 -25 -25 -25 -25 -25 -25 -25 -25 -25 -25 -25 -25 -25 -26 -26 -25 -25 -25 -25 -25 -25 -25 -25 -25 -25 -25 -25 -25 -25 -25 -24 -24 -23
-24 -24 -24 -25 -25 -25 -25 -25 -25 -25 -25 -25 -25 -25 -25 -25 -25 -25 -25 -25 -25 -25 -26 -25 -25 -25 -25 -25 -25 -25 -25 -25 -25 -25 -25 -25 -24 -24 -24 -24 -24 -24 -24
-24 -24 -25 -25 -25 -24 -25 -25 -25 -25 -25 -25 -25 -25 -25 -25 -25 -26 -26 -26 -26 -26 -26 -25 -25 -25 -25 -25 -25 -25 -25 -25 -25 -25 -25 -25 -24 -24 -24 -24 -24 -24 -24
-24 -25 -25 -25 -24 -25 -25 -25 -25 -25 -25 -25 -25 -25 -25 -26 -26 -26 -26 -26 -26 -26 -26 -26 -25 -25 -25 -25 -25 -25 -25 -25 -25 -25 -25 -25 -25 -25 -25 -25 -24 -24 -24

GFSMW_500_temp_162.txt.gz
Temp
-13 -14 -13 -13 -13 -13 -13 -13 -13 -13 -13 -13 -13 -13 -13 -13 -13 -13 -13 -13 -13 -13 -13 -13 -13 -13 -13 -13 -13 -13 -13 -13 -12 -12 -12 -12 -13 -12 -12 -12 -12 -13 -13
-13 -14 -14 -14 -14 -14 -14 -14 -14 -13 -13 -13 -14 -14 -14 -14 -14 -13 -13 -13 -13 -13 -13 -13 -13 -13 -13 -13 -13 -13 -13 -13 -13 -13 -12 -12 -13 -12 -12 -13 -13 -13 -13
-14 -14 -15 -15 -15 -14 -14 -14 -14 -14 -14 -14 -14 -14 -14 -14 -14 -14 -14 -14 -14 -14 -14 -14 -13 -13 -13 -13 -13 -13 -13 -13 -14 -13 -13 -13 -13 -13 -13 -13 -13 -13 -13
-14 -14 -15 -15 -15 -15 -15 -15 -15 -15 -15 -15 -15 -15 -15 -15 -15 -15 -15 -15 -14 -14 -14 -14 -14 -14 -14 -14 -14 -14 -14 -14 -14 -14 -14 -13 -13 -13 -13 -13 -13 -13 -13
-15 -14 -15 -15 -16 -15 -15 -15 -15 -15 -15 -16 -15 -15 -15 -15 -16 -15 -16 -15 -15 -15 -15 -15 -15 -15 -15 -15 -15 -15 -15 -15 -14 -14 -14 -14 -14 -14 -14 -13 -14 -13 -13
-16 -16 -16 -16 -16 -17 -16 -16 -16 -16 -16 -16 -16 -16 -16 -16 -16 -16 -16 -16 -16 -16 -16 -16 -16 -16 -16 -16 -16 -16 -15 -15 -15 -15 -15 -14 -14 -14 -14 -14 -14 -14 -14
-17 -18 -18 -18 -17 -17 -17 -17 -17 -17 -17 -18 -17 -17 -17 -17 -17 -17 -17 -17 -17 -17 -17 -17 -17 -17 -17 -17 -16 -16 -16 -16 -16 -15 -15 -15 -15 -14 -15 -15 -14 -14 -14
-18 -18 -19 -19 -19 -18 -19 -19 -18 -18 -18 -18 -18 -17 -18 -18 -18 -18 -18 -18 -18 -18 -18 -18 -18 -18 -18 -17 -17 -17 -17 -17 -17 -16 -16 -16 -16 -18 -17 -17 -17 -17 -17
-19 -19 -19 -20 -19 -19 -19 -19 -18 -18 -18 -18 -18 -19 -19 -18 -19 -19 -19 -19 -19 -19 -19 -19 -19 -18 -18 -18 -18 -18 -18 -18 -18 -18 -18 -18 -18 -18 -18 -18 -17 -17 -17
-19 -20 -20 -20 -20 -19 -19 -19 -19 -19 -19 -19 -19 -19 -19 -20 -20 -20 -20 -20 -20 -20 -20 -19 -19 -19 -19 -19 -19 -19 -19 -19 -19 -19 -19 -19 -19 -19 -18 -17 -17 -17 -17
-20 -20 -21 -21 -21 -20 -20 -20 -20 -20 -20 -20 -20 -20 -21 -20 -20 -20 -20 -20 -20 -20 -20 -20 -20 -20 -20 -20 -20 -20 -21 -21 -20 -20 -20 -20 -19 -19 -18 -17 -17 -17 -17
-21 -21 -21 -21 -21 -21 -21 -21 -21 -21 -20 -21 -22 -22 -21 -21 -21 -21 -21 -20 -21 -21 -21 -21 -21 -21 -21 -21 -21 -22 -22 -22 -22 -21 -20 -20 -20 -19 -18 -18 -18 -17 -17
-22 -22 -22 -21 -22 -21 -21 -21 -21 -21 -22 -22 -22 -22 -21 -21 -21 -21 -21 -21 -21 -21 -22 -22 -23 -23 -23 -24 -24 -24 -24 -24 -23 -21 -21 -21 -20 -19 -18 -18 -18 -18 -17
-22 -22 -21 -22 -21 -21 -21 -21 -22 -23 -22 -22 -22 -22 -21 -21 -21 -22 -22 -22 -23 -23 -24 -24 -25 -25 -25 -25 -25 -25 -25 -24 -23 -22 -21 -21 -20 -20 -19 -19 -18 -18 -18
-22 -22 -21 -22 -21 -22 -22 -23 -23 -23 -22 -22 -22 -22 -22 -22 -22 -23 -23 -24 -25 -25 -25 -25 -25 -25 -25 -25 -26 -25 -25 -25 -24 -22 -21 -21 -20 -21 -19 -18 -19 -18 -18
-22 -22 -22 -22 -21 -22 -23 -23 -23 -23 -22 -23 -22 -23 -23 -23 -24 -24 -24 -25 -25 -26 -26 -26 -25 -25 -26 -26 -26 -26 -25 -24 -24 -23 -22 -21 -21 -21 -21 -20 -19 -19 -18
-22 -22 -22 -22 -22 -22 -23 -23 -23 -22 -23 -23 -23 -23 -23 -24 -24 -25 -25 -25 -26 -26 -26 -26 -26 -26 -26 -26 -26 -25 -25 -24 -24 -23 -23 -22 -22 -21 -21 -20 -20 -20 -19
-22 -22 -22 -22 -23 -23 -23 -23 -23 -23 -23 -24 -24 -24 -24 -24 -24 -24 -25 -26 -26 -26 -27 -27 -26 -26 -26 -26 -26 -25 -24 -24 -23 -23 -23 -23 -22 -22 -21 -20 -20 -20 -20
-22 -22 -22 -23 -23 -23 -23 -23 -23 -24 -24 -24 -24 -24 -24 -24 -24 -24 -25 -25 -26 -27 -27 -27 -27 -27 -27 -26 -26 -26 -25 -25 -24 -23 -23 -23 -23 -22 -22 -22 -21 -20 -20
-22 -22 -23 -23 -23 -23 -23 -24 -24 -24 -24 -24 -24 -24 -24 -24 -24 -25 -25 -25 -26 -26 -26 -26 -27 -27 -26 -26 -26 -26 -26 -25 -25 -25 -24 -24 -24 -23 -22 -22 -22 -22 -21
-23 -23 -23 -23 -23 -23 -24 -24 -24 -24 -24 -24 -24 -24 -24 -24 -25 -25 -25 -25 -25 -26 -26 -26 -26 -26 -26 -26 -26 -26 -26 -26 -26 -26 -25 -25 -25 -25 -24 -24 -23 -23 -22
-23 -23 -23 -23 -24 -24 -24 -24 -24 -24 -24 -24 -24 -24 -24 -25 -25 -25 -25 -25 -25 -25 -25 -25 -25 -25 -25 -25 -25 -25 -25 -25 -25 -25 -25 -25 -25 -25 -25 -25 -25 -24 -24
-23 -23 -23 -24 -24 -24 -24 -24 -24 -24 -24 -25 -25 -25 -25 -25 -25 -25 -25 -25 -25 -25 -25 -25 -25 -25 -25 -25 -25 -25 -25 -25 -25 -25 -25 -25 -24 -25 -24 -24 -24 -24 -24
-23 -23 -23 -24 -24 -24 -24 -24 -24 -24 -25 -25 -25 -25 -25 -25 -25 -25 -25 -25 -25 -26 -26 -26 -26 -26 -26 -26 -26 -26 -26 -25 -25 -25 -25 -25 -25 -25 -25 -25 -25 -25 -25
-23 -23 -24 -24 -24 -24 -24 -24 -24 -24 -25 -25 -25 -25 -25 -25 -25 -26 -26 -26 -26 -26 -26 -26 -26 -26 -26 -26 -26 -26 -26 -26 -26 -25 -25 -25 -25 -25 -25 -25 -25 -25 -25
-23 -24 -24 -24 -24 -24 -24 -24 -25 -25 -25 -25 -25 -26 -26 -26 -26 -26 -26 -26 -26 -26 -26 -26 -26 -26 -26 -26 -26 -26 -26 -26 -26 -26 -26 -26 -26 -26 -25 -25 -25 -25 -25

GFSMW_500_temp_165.txt.gz
Temp
-13 -13 -14 -13 -14 -14 -14 -14 -14 -14 -14 -14 -14 -14 -14 -14 -14 -14 -14 -14 -14 -14 -14 -14 -14 -13 -13 -13 -13 -13 -13 -13 -13 -12 -13 -12 -13 -13 -13 -12 -13 -13 -12
-13 -13 -14 -14 -14 -14 -14 -14 -14 -15 -14 -14 -14 -14 -14 -14 -14 -14 -14 -14 -14 -14 -14 -14 -14 -14 -14 -14 -14 -14 -14 -14 -13 -13 -13 -13 -14 -13 -13 -13 -13 -13 -13
-13 -14 -14 -15 -15 -15 -15 -15 -15 -15 -15 -15 -15 -15 -15 -15 -15 -15 -15 -14 -14 -15 -15 -15 -14 -15 -15 -14 -14 -14 -14 -14 -13 -13 -12 -12 -13 -13 -14 -14 -13 -13 -13
-14 -15 -16 -16 -16 -16 -16 -16 -16 -16 -16 -16 -16 -16 -16 -15 -16 -15 -15 -15 -15 -15 -15 -15 -15 -15 -15 -15 -15 -15 -15 -14 -15 -15 -14 -14 -13 -13 -13 -14 -14 -14 -14
-14 -16 -17 -17 -17 -17 -17 -17 -17 -17 -17 -17 -17 -16 -17 -16 -16 -16 -16 -16 -16 -16 -16 -16 -16 -16 -16 -16 -16 -16 -16 -16 -15 -15 -15 -15 -15 -14 -14 -13 -14 -14 -14
-16 -17 -17 -17 -18 -18 -18 -18 -17 -18 -18 -18 -18 -18 -18 -18 -18 -17 -17 -17 -17 -17 -17 -17 -17 -17 -16 -16 -16 -16 -16 -16 -16 -16 -16 -16 -16 -16 -15 -15 -14 -14 -15
-18 -18 -18 -18 -18 -18 -19 -19 -19 -19 -18 -18 -18 -18 -18 -18 -18 -18 -18 -18 -18 -18 -18 -18 -18 -17 -17 -17 -17 -17 -17 -17 -17 -17 -17 -17 -16 -16 -16 -15 -15 -15 -15
-19 -19 -19 -19 -19 -19 -19 -20 -20 -20 -19 -19 -19 -19 -19 -19 -19 -19 -18 -18 -19 -19 -19 -19 -18 -18 -19 -19 -19 -19 -18 -18 -18 -18 -17 -17 -17 -17 -16 -16 -16 -15 -15
-20 -20 -20 -20 -20 -20 -20 -20 -21 -21 -20 -20 -19 -19 -19 -19 -19 -20 -19 -19 -20 -20 -21 -20 -20 -20 -20 -20 -19 -19 -19 -19 -18 -18 -18 -18 -17 -17 -17 -17 -17 -16 -15
-20 -21 -20 -20 -20 -20 -21 -21 -21 -21 -21 -21 -21 -21 -20 -20 -20 -20 -20 -21 -21 -21 -21 -20 -20 -20 -20 -20 -20 -20 -19 -19 -19 -19 -19 -18 -18 -18 -18 -18 -18 -17 -17
-22 -21 -21 -21 -21 -21 -21 -21 -21 -21 -21 -21 -21 -21 -21 -21 -22 -22 -22 -21 -21 -21 -21 -21 -20 -21 -20 -20 -20 -20 -20 -21 -20 -20 -20 -20 -20 -19 -19 -19 -19 -18 -18
-22 -22 -22 -22 -21 -22 -21 -21 -21 -21 -22 -21 -21 -21 -22 -22 -22 -22 -22 -22 -21 -21 -21 -21 -21 -21 -21 -22 -22 -23 -23 -24 -24 -24 -23 -23 -23 -22 -21 -21 -20 -19 -18
-22 -22 -22 -22 -22 -22 -22 -22 -22 -22 -22 -21 -22 -23 -23 -22 -22 -22 -22 -22 -22 -22 -22 -22 -22 -23 -23 -24 -24 -24 -24 -25 -25 -25 -25 -25 -24 -23 -22 -21 -20 -19 -19
-22 -22 -22 -22 -22 -22 -22 -22 -22 -21 -22 -23 -24 -24 -23 -23 -23 -23 -22 -22 -23 -23 -23 -23 -24 -24 -24 -24 -25 -25 -25 -25 -25 -25 -26 -25 -24 -23 -23 -22 -20 -20 -19
-22 -22 -22 -22 -22 -22 -22 -22 -22 -22 -23 -23 -23 -24 -23 -23 -23 -23 -23 -23 -23 -24 -25 -25 -25 -25 -25 -25 -26 -26 -26 -26 -26 -25 -25 -25 -24 -23 -22 -22 -22 -21 -20
-21 -22 -22 -22 -22 -22 -22 -22 -22 -23 -23 -23 -23 -23 -23 -23 -23 -23 -24 -24 -24 -25 -26 -26 -26 -25 -26 -26 -26 -26 -26 -26 -25 -25 -25 -24 -23 -23 -22 -22 -22 -22 -21
-22 -22 -22 -22 -22 -22 -22 -22 -23 -23 -23 -23 -23 -23 -24 -24 -23 -23 -23 -24 -24 -25 -26 -26 -26 -26 -26 -26 -26 -26 -26 -25 -25 -25 -25 -24 -23 -23 -22 -22 -22 -22 -21
-22 -22 -22 -22 -22 -22 -22 -24 -24 -24 -24 -24 -24 -24 -24 -24 -24 -24 -24 -24 -24 -25 -25 -26 -26 -26 -26 -26 -26 -26 -26 -26 -26 -25 -25 -24 -24 -23 -23 -23 -23 -23 -22
-22 -22 -22 -22 -23 -23 -24 -24 -24 -24 -24 -24 -24 -24 -24 -24 -24 -24 -24 -25 -25 -25 -25 -25 -26 -26 -26 -26 -26 -26 -26 -26 -26 -26 -25 -25 -25 -24 -24 -23 -23 -23 -23
-23 -23 -23 -23 -23 -24 -24 -23 -24 -24 -24 -24 -24 -24 -24 -24 -24 -24 -25 -25 -25 -25 -25 -25 -25 -26 -26 -26 -26 -26 -26 -26 -26 -25 -25 -25 -25 -25 -25 -25 -25 -24 -24
-23 -23 -23 -24 -24 -23 -23 -24 -24 -24 -24 -24 -24 -24 -24 -24 -24 -25 -25 -25 -25 -25 -25 -25 -25 -25 -25 -25 -26 -26 -26 -26 -25 -25 -25 -25 -25 -25 -25 -25 -25 -25 -24
-23 -23 -23 -23 -23 -24 -24 -24 -24 -24 -24 -24 -24 -24 -24 -24 -25 -25 -25 -25 -25 -25 -25 -25 -25 -25 -25 -26 -26 -26 -26 -26 -25 -25 -25 -25 -25 -25 -25 -25 -25 -25 -25
-23 -23 -23 -23 -24 -24 -24 -24 -24 -24 -24 -24 -24 -25 -25 -25 -25 -25 -25 -25 -25 -25 -25 -26 -26 -26 -26 -26 -26 -26 -26 -26 -26 -26 -26 -26 -26 -25 -25 -25 -25 -25 -25
-23 -23 -23 -23 -24 -24 -24 -24 -24 -24 -24 -24 -25 -25 -25 -25 -25 -25 -25 -25 -26 -26 -26 -26 -26 -26 -26 -26 -26 -26 -26 -26 -26 -26 -26 -26 -26 -26 -25 -25 -25 -25 -25
-23 -23 -23 -23 -24 -24 -24 -24 -24 -24 -24 -25 -25 -25 -25 -25 -25 -25 -26 -26 -26 -26 -27 -27 -27 -27 -27 -27 -27 -27 -26 -26 -26 -26 -26 -26 -26 -26 -26 -26 -26 -25 -25
-23 -23 -23 -24 -24 -24 -24 -24 -24 -24 -25 -25 -25 -25 -25 -25 -26 -26 -26 -26 -27 -27 -27 -27 -27 -27 -27 -27 -27 -27 -27 -27 -26 -26 -26 -26 -26 -26 -26 -26 -26 -26 -25

GFSMW_500_temp_168.txt.gz
Temp
-13 -14 -14 -14 -14 -14 -14 -15 -15 -15 -15 -15 -15 -14 -14 -14 -14 -14 -14 -14 -14 -14 -14 -14 -14 -14 -14 -14 -14 -14 -14 -14 -13 -13 -14 -13 -13 -13 -13 -13 -13 -13 -13
-14 -15 -15 -15 -15 -15 -15 -15 -15 -16 -16 -16 -16 -16 -15 -15 -15 -15 -15 -15 -15 -15 -15 -15 -15 -15 -15 -15 -15 -15 -14 -14 -14 -14 -14 -14 -14 -14 -13 -13 -13 -13 -13
-13 -14 -15 -16 -16 -16 -16 -16 -16 -16 -16 -17 -17 -17 -17 -17 -16 -16 -16 -16 -16 -16 -16 -16 -15 -15 -15 -15 -15 -15 -15 -15 -15 -15 -14 -14 -14 -14 -15 -14 -14 -14 -14
-13 -14 -15 -17 -17 -18 -17 -17 -18 -17 -17 -17 -17 -17 -17 -17 -17 -17 -17 -17 -17 -17 -17 -16 -16 -16 -16 -16 -16 -16 -15 -15 -16 -15 -15 -15 -14 -14 -14 -15 -15 -15 -14
-14 -15 -16 -17 -17 -18 -18 -18 -18 -18 -18 -18 -18 -18 -18 -18 -18 -18 -18 -18 -17 -17 -17 -17 -17 -17 -17 -17 -17 -17 -17 -16 -16 -16 -16 -16 -16 -15 -14 -14 -16 -15 -15
-16 -16 -17 -18 -18 -19 -18 -18 -19 -18 -19 -19 -19 -19 -18 -19 -19 -18 -19 -18 -18 -18 -18 -18 -18 -18 -18 -18 -17 -17 -17 -17 -17 -17 -16 -16 -16 -16 -15 -15 -15 -15 -16
-17 -17 -18 -19 -19 -19 -19 -19 -20 -19 -20 -20 -20 -20 -20 -20 -20 -20 -19 -19 -19 -19 -19 -19 -19 -19 -18 -18 -18 -18 -18 -18 -18 -17 -17 -17 -17 -17 -16 -16 -16 -15 -16
-19 -20 -20 -20 -20 -20 -20 -20 -20 -20 -20 -21 -21 -21 -21 -21 -21 -20 -20 -20 -20 -20 -19 -19 -19 -19 -19 -19 -19 -19 -19 -19 -19 -19 -19 -19 -18 -18 -17 -17 -16 -16 -16
-19 -20 -20 -20 -20 -21 -21 -20 -21 -21 -21 -21 -22 -21 -21 -21 -21 -21 -21 -21 -21 -20 -20 -20 -20 -20 -20 -20 -20 -20 -20 -20 -20 -20 -20 -19 -19 -19 -18 -18 -17 -17 -16
-21 -21 -21 -22 -21 -21 -21 -21 -21 -22 -22 -22 -21 -21 -22 -22 -21 -21 -21 -21 -21 -22 -22 -22 -21 -21 -21 -21 -20 -20 -20 -20 -20 -20 -20 -20 -20 -19 -19 -18 -18 -18 -17
-22 -22 -22 -22 -22 -22 -22 -22 -22 -22 -22 -22 -22 -22 -22 -22 -22 -22 -23 -23 -22 -22 -22 -22 -22 -21 -21 -21 -21 -21 -21 -21 -21 -22 -22 -22 -22 -21 -21 -20 -19 -18 -18
-22 -22 -23 -22 -22 -22 -22 -22 -22 -22 -22 -22 -22 -22 -22 -22 -23 -24 -23 -23 -23 -23 -22 -22 -22 -21 -21 -22 -23 -23 -23 -23 -23 -24 -24 -24 -24 -24 -24 -23 -22 -22 -20
-22 -23 -22 -23 -22 -22 -22 -22 -22 -22 -22 -22 -22 -22 -22 -24 -24 -23 -23 -23 -22 -22 -22 -22 -23 -23 -23 -23 -23 -24 -24 -24 -25 -25 -25 -25 -25 -25 -25 -25 -24 -24 -23
-23 -23 -23 -22 -22 -22 -22 -22 -22 -21 -22 -22 -23 -23 -23 -24 -23 -23 -23 -23 -23 -23 -23 -24 -24 -24 -24 -24 -25 -25 -25 -25 -26 -26 -26 -26 -26 -26 -26 -25 -25 -24 -23
-22 -22 -22 -22 -22 -22 -22 -22 -22 -22 -23 -23 -23 -24 -23 -23 -23 -23 -23 -23 -23 -24 -24 -25 -25 -25 -24 -24 -25 -25 -25 -26 -25 -25 -25 -25 -25 -25 -25 -25 -24 -24 -23
-22 -22 -22 -22 -22 -22 -22 -22 -23 -23 -23 -23 -24 -23 -23 -23 -24 -24 -24 -23 -24 -24 -24 -25 -25 -25 -25 -25 -25 -25 -26 -26 -25 -25 -25 -25 -25 -25 -25 -24 -24 -24 -24
-22 -22 -22 -22 -22 -22 -23 -23 -23 -23 -23 -24 -24 -23 -24 -24 -24 -24 -24 -24 -24 -24 -24 -25 -25 -25 -25 -26 -26 -26 -26 -26 -26 -26 -26 -26 -26 -25 -25 -25 -24 -24 -24
-22 -22 -22 -22 -22 -22 -23 -23 -23 -23 -24 -24 -24 -24 -24 -24 -24 -24 -24 -24 -24 -24 -25 -25 -25 -25 -25 -26 -26 -26 -26 -26 -26 -26 -26 -25 -25 -25 -25 -25 -25 -25 -25
-22 -22 -22 -23 -23 -23 -23 -24 -24 -24 -24 -24 -24 -24 -24 -24 -24 -24 -24 -24 -25 -25 -25 -25 -25 -25 -25 -25 -25 -25 -25 -26 -26 -26 -26 -26 -26 -25 -25 -25 -25 -25 -24
-23 -22 -22 -23 -23 -24 -24 -24 -24 -24 -24 -24 -24 -24 -24 -24 -25 -25 -25 -25 -25 -25 -25 -25 -25 -25 -25 -25 -25 -26 -26 -26 -26 -26 -26 -26 -26 -26 -25 -26 -25 -25 -25
-23 -23 -23 -24 -23 -23 -23 -24 -24 -24 -24 -24 -24 -24 -24 -24 -25 -25 -25 -25 -25 -25 -25 -25 -25 -25 -26 -26 -26 -26 -26 -26 -26 -26 -26 -26 -26 -25 -25 -25 -25 -25 -25
-24 -24 -24 -23 -23 -23 -24 -24 -24 -24 -24 -24 -24 -24 -24 -25 -25 -25 -25 -25 -25 -25 -25 -25 -25 -26 -26 -26 -26 -26 -26 -26 -26 -26 -26 -26 -26 -26 -26 -25 -25 -25 -25
-24 -23 -23 -23 -23 -23 -24 -24 -24 -24 -24 -24 -24 -24 -25 -25 -25 -25 -25 -25 -25 -25 -26 -26 -26 -26 -27 -27 -26 -26 -26 -26 -26 -26 -26 -26 -26 -26 -26 -26 -26 -25 -25
-23 -23 -23 -23 -23 -23 -24 -24 -24 -24 -24 -24 -24 -25 -25 -25 -25 -25 -25 -26 -26 -26 -26 -27 -27 -27 -27 -27 -27 -27 -27 -26 -26 -26 -26 -26 -26 -26 -26 -26 -25 -25 -25
-23 -23 -23 -23 -23 -23 -24 -24 -24 -24 -24 -24 -25 -25 -25 -25 -25 -25 -26 -26 -26 -27 -27 -27 -27 -27 -27 -27 -27 -27 -27 -27 -27 -27 -27 -26 -26 -26 -26 -26 -26 -26 -26
-23 -23 -23 -23 -23 -23 -24 -24 -24 -24 -24 -24 -25 -25 -25 -25 -25 -26 -26 -26 -27 -27 -27 -27 -27 -27 -27 -27 -27 -27 -27 -27 -27 -27 -27 -27 -27 -27 -27 -27 -27 -27 -27